Location: Caseificio
(44.7500°N, 11.0500°E)
Time: 16:09:31
(UTC+00:00)

Cosmos 332 Rocket - Pass Details

Date: 26 May 2022
Orbit: 681 x 703 km, 74.0° (Epoch: 07 July)

Event Time Altitude Azimuth Distance (km) Brightness Sun altitude
Exits shadow 00:28:17 57° 173° (S) 805 3.7 -21.9°
Maximum altitude 00:29:11 75° 108° (ESE) 710 3.7 -21.9°
Drops below altitude 10° 00:33:58 10° 24° (NNE) 2,131 7.5 -21.6°
Sets 00:36:17 0° 23° (NNE) 3,051 8.7 -21.5°
